This demonstration page uses our WeatherBlox Daily Observations layout. Learn more.

Left ArrowRight Arrow

38.20091, -84.87328

Hourly Observations for July 10, 2015

Temp ( °F °C ) Dew Point ( °F °C ) Humidity (%) Winds ( mph kmh ) Pressure ( in mb ) Visibility ( mi km ) Precip ( " mm )
12:53 am 00:53 Partly Cloudy 71 21.7 68 20 90 90 Calm 30.06 1018 7 11 0.00 0.00
1:53 am 01:53 Mostly Cloudy 71 21.7 68 20 90 90 Calm 30.05 1018 8 13 0.00 0.00
2:53 am 02:53 Mostly Cloudy 71 21.7 69 20.6 94 94 Calm 30.05 1018 8 13 0.00 0.00
3:53 am 03:53 Mostly Clear with Mist and Fog 71 21.7 68 20 90 90 N 5 7 30.05 1018 6 10 0.00 0.00
4:24 am 04:24 Mostly Cloudy with Mist and Fog 70 21.1 68 20 93 93 NW 3 6 30.06 1018 5 8 0.00 0.00
4:50 am 04:50 Partly Cloudy with Mist and Fog 70 21 68 20 94 94 Calm 30.03 1017 6 10 0.00 0.00
4:53 am 04:53 Mostly Clear with Mist and Fog 70 21.1 68 20 93 93 Calm 30.05 1018 6 10 0.00 0.00
5:32 am 05:32 Partly Cloudy with Mist and Fog 69 20.6 67 19.4 93 93 Calm 30.06 1018 1 2 0.00 0.00
5:37 am 05:37 Partly Cloudy with Mist and Fog 69 20.6 67 19.4 93 93 Calm 30.06 1018 3 5 0.00 0.00
5:53 am 05:53 Mostly Cloudy with Mist and Fog 69 20.6 67 19.4 93 93 Calm 30.06 1018 6 10 0.00 0.00
6:05 am 06:05 Mostly Cloudy with Mist and Fog 69 20.6 67 19.4 93 93 Calm 30.06 1018 6 10 0.00 0.00
6:39 am 06:39 Mostly Cloudy with Mist and Fog 68 20 66 18.9 93 93 Calm 30.09 1019 3 4 0.00 0.00
6:53 am 06:53 Cloudy with Mist and Fog 69 20.6 67 19.4 93 93 Calm 30.09 1019 4 6 0.00 0.00
7:28 am 07:28 Cloudy with Mist and Fog 70 21.1 68 20 93 93 Calm 30.09 1019 4 6 0.00 0.00
7:36 am 07:36 Cloudy with Mist and Fog 70 21.1 68 20 93 93 Calm 30.09 1019 4 6 0.00 0.00
7:53 am 07:53 Cloudy with Mist and Fog 71 21.7 68 20 90 90 Calm 30.09 1019 5 8 0.00 0.00
8:19 am 08:19 Cloudy with Mist and Fog 71 21.7 69 20.6 94 94 Calm 30.09 1019 5 8 0.00 0.00
8:53 am 08:53 Cloudy with Mist and Fog 72 22.2 69 20.6 91 91 SSW 6 9 30.10 1019 5 8 0.00 0.00
9:18 am 09:18 Cloudy 72 22.2 69 20.6 91 91 SW 3 6 30.09 1019 7 11 0.00 0.00
9:53 am 09:53 Mostly Cloudy 75 23.9 69 20.6 82 82 WSW 3 6 30.11 1020 9 14 0.00 0.00
10:02 am 10:02 Partly Cloudy 75 23.9 69 20.6 82 82 SSW 3 6 30.09 1019 9 14 0.00 0.00
10:53 am 10:53 Mostly Cloudy 78 25.6 70 21.1 76 76 SSW 5 7 30.10 1019 10 16 0.00 0.00
11:35 am 11:35 Mostly Cloudy 80 26.7 70 21.1 71 71 SW 6 9 30.09 1019 10 16 0.00 0.00
11:53 am 11:53 Mostly Cloudy with Thunderstorms 79 26.1 70 21.1 74 74 SW 25 41 30.11 1020 3 5 0.00 0.00
11:55 am 11:55 Windy with Storms Likely 77 25 70 21.1 79 79 SW 24 39 30.09 1019 1 2 0.15 3.81
12:02 pm 12:02 Cloudy with Thunderstorms 72 22.2 68 20 87 87 W 12 19 30.12 1020 1 1 0.18 4.57
12:04 pm 12:04 Cloudy with Thunderstorms 72 22.2 68 20 87 87 W 13 20 30.09 1019 1 2 0.19 4.83
12:06 pm 12:06 Cloudy with Thunderstorms 72 22.2 68 20 87 87 W 13 20 30.09 1019 2 3 0.19 4.83
12:15 pm 12:15 Mostly Cloudy with Thunderstorms 70 21.1 67 19.4 90 90 W 12 19 30.09 1019 5 8 0.20 5.08
12:53 pm 12:53 Mostly Cloudy 70 21.1 67 19.4 90 90 SSW 5 7 30.10 1019 10 16 0.22 5.59
1:53 pm 13:53 Partly Cloudy 76 24.4 69 20.6 79 79 WSW 5 7 30.08 1019 10 16 0.00 0.00
2:53 pm 14:53 Partly Cloudy 81 27.2 70 21.1 69 69 W 7 11 30.07 1018 10 16 0.00 0.00
3:53 pm 15:53 Mostly Cloudy 79 26.1 72 22.2 79 79 W 3 6 30.05 1018 10 16 0.02 0.51
4:03 pm 16:03 Mostly Cloudy with Thunderstorms 80 26.7 71 21.7 74 74 NW 3 6 30.03 1017 10 16 0.00 0.00
4:17 pm 16:17 Cloudy with Strong Thunderstorms 77 25 71 21.7 82 82 W 15 24 30.06 1018 1 1 0.24 6.10
4:27 pm 16:27 Cloudy with Strong Thunderstorms 73 22.8 70 21.1 90 90 Calm 30.06 1018 0 0 0.55 13.97
4:39 pm 16:39 Mostly Cloudy with Thunderstorms 75 23.9 72 22.2 90 90 VRB 3 6 30.03 1017 1 1 0.67 17.02
4:41 pm 16:41 Mostly Cloudy with Thunderstorms 75 23.9 71 21.7 88 88 Calm 30.03 1017 2 3 0.67 17.02
4:44 pm 16:44 Mostly Cloudy with Thunderstorms 75 23.9 71 21.7 88 88 VRB 3 6 30.03 1017 9 14 0.67 17.02
4:53 pm 16:53 Mostly Cloudy with Nearby Thunderstorms 75 23.9 71 21.7 88 88 Calm 30.04 1017 10 16 0.67 17.02
5:03 pm 17:03 Mostly Cloudy 75 23.9 71 21.7 88 88 ENE 3 6 30.03 1017 10 16 0.00 0.00
5:27 pm 17:27 Cloudy with Rain 75 23.9 72 22.2 90 90 SSE 6 9 30.03 1017 1 2 0.05 1.27
5:32 pm 17:32 Cloudy with Light Rain 75 23.9 72 22.2 90 90 S 6 9 30.03 1017 4 6 0.05 1.27
5:39 pm 17:39 Cloudy with Nearby Thunderstorms 75 23.9 72 22.2 90 90 S 7 11 30.03 1017 10 16 0.06 1.52
5:48 pm 17:48 Mostly Cloudy 75 24 72 22 89 89 SSE 6 9 30.03 1017 10 16 0.06 1.52
5:53 pm 17:53 Mostly Cloudy 77 25 72 22.2 85 85 S 6 9 30.04 1017 10 16 0.06 1.52
6:09 pm 18:09 Mostly Cloudy with Light Rain 75 23.9 70 21.1 84 84 WSW 5 7 30.03 1017 3 4 0.02 0.51
6:11 pm 18:11 Mostly Cloudy with Heavy Rain 75 23.9 70 21.1 84 84 WSW 3 6 30.03 1017 2 3 0.03 0.76
6:17 pm 18:17 Mostly Cloudy with Light Rain 75 23.9 71 21.7 88 88 Calm 30.03 1017 2 3 0.03 0.76
6:25 pm 18:25 Cloudy 75 23.9 71 21.7 88 88 SSW 5 7 30.03 1017 10 16 0.03 0.76
6:49 pm 18:49 Mostly Cloudy 75 24 72 22 89 89 WSW 6 9 30.03 1017 10 16 0.03 0.76
6:53 pm 18:53 Mostly Cloudy 76 24.4 72 22.2 88 88 SW 12 19 30.05 1018 10 16 0.03 0.76
7:14 pm 19:14 Mostly Cloudy with Heavy Rain 75 23.9 72 22.2 90 90 NNW 12 19 30.03 1017 2 3 0.04 1.02
7:17 pm 19:17 Mostly Cloudy with Heavy Rain 75 23.9 72 22.2 90 90 N 7 11 30.03 1017 1 2 0.05 1.27
7:25 pm 19:25 Mostly Cloudy with Light Rain 76 24.4 72 22.2 88 88 N 6 9 30.06 1018 3 5 0.06 1.52
7:37 pm 19:37 Cloudy 76 24.4 72 22.2 88 88 NNW 6 9 30.06 1018 8 13 0.06 1.52
7:53 pm 19:53 Mostly Cloudy 75 23.9 71 21.7 88 88 NNW 5 7 30.06 1018 7 11 0.06 1.52
8:53 pm 20:53 Partly Cloudy with Mist and Fog 73 22.8 70 21.1 90 90 NW 3 6 30.06 1018 4 6 0.00 0.00
9:17 pm 21:17 Partly Cloudy with Mist and Fog 72 22.2 70 21.1 94 94 NW 5 7 30.06 1018 4 6 0.00 0.00
9:26 pm 21:26 Mostly Cloudy with Mist and Fog 72 22.2 69 20.6 91 91 NNW 8 13 30.06 1018 5 8 0.00 0.00
9:53 pm 21:53 Cloudy with Mist and Fog 71 21.7 68 20 90 90 NNW 8 13 30.08 1019 5 8 0.00 0.00
10:20 pm 22:20 Cloudy with Mist and Fog 70 21.1 66 18.9 87 87 NNW 8 13 30.09 1019 6 10 0.00 0.00
10:53 pm 22:53 Cloudy with Mist and Fog 70 21.1 67 19.4 90 90 NNW 5 7 30.11 1020 6 10 0.00 0.00
11:53 pm 23:53 Mostly Cloudy with Mist and Fog 68 20 66 18.9 93 93 NNW 5 7 30.11 1020 5 8 0.00 0.00

Powered by AerisWeather